Omaha, NE

4:31 PM CDT on September 26, 2016 (GMT -0500)
Eppley Airfield

Weather History for KOMA - April, 2012

Change the Weather History Date:

Thursday, April 12, 2012

  Actual Average Record
Temperature  
Mean Temperature 46 °F 50 °F  
Max Temperature 52 °F 63 °F 86 °F (1916)
Min Temperature 40 °F 38 °F 18 °F (1957)
Degree Days  
Heating Degree Days 19 15  
Month to date heating degree days 118 203  
Since 1 July heating degree days 4595 5792  
Cooling Degree Days 0 0  
Month to date cooling degree days 19 0  
Year to date cooling degree days 57 1  
Moisture  
Dew Point 36 °F    
Average Humidity 60    
Maximum Humidity 77    
Minimum Humidity 42    
Precipitation  
Precipitation 0.13 in 0.09 in 1.20 in (1945)
Month to date precipitation 0.51 1.03  
Year to date precipitation 3.98 4.59  
Snow  
Snow 0.00 in 0.00 in - ()
Month to date snowfall 0.0 0.6  
Since 1 July snowfall 20.4 26.0  
Snow Depth 0.00 in    
Sea Level Pressure  
Sea Level Pressure 30.04 in    
Wind  
Wind Speed 14 mph (SE)    
Max Wind Speed 25 mph    
Max Gust Speed 31 mph    
Visibility 10 miles    
Events Rain , Thunderstorm    
T = Trace of Precipitation, MM = Missing Value Source: NWS Daily Summary

Daily Weather History Graph

Daily Weather History Graph

Search for Another Location

Airport or City:

Trip Planner

Search our weather history database for the weather conditions in past years. The results will help you decide how hot, cold, wet, or windy it might be!

Date:

Astronomy

Apr. 12, 2012 Rise Set
Actual Time 6:47 AM CDT 8:01 PM CDT
Civil Twilight 6:19 AM CDT 8:29 PM CDT
Nautical Twilight 5:45 AM CDT 9:03 PM CDT
Astronomical Twilight 5:09 AM CDT 9:39 PM CDT
Moon 1:51 AM CDT (4/12) 11:41 AM CDT (4/12)
Length of Visible Light 14h 10m
Length of Day
13h 13m
Waning Gibbous, 58% of the Moon is Illuminated
Apr 12
Waning Gibbous
Apr 13
Last Quarter
Apr 21
New
Apr 29
First Quarter
May 5
Full

Hourly Weather History & Observations

Time (CDT) Temp. Windchill Dew Point Humidity Pressure Visibility Wind Dir Wind Speed Gust Speed Precip Events Conditions
12:52 AM 42.1 °F 37.7 °F 24.1 °F 49% 30.19 in 10.0 mi SE 6.9 mph - N/A   Clear
1:52 AM 41.0 °F 37.1 °F 25.0 °F 53% 30.19 in 10.0 mi SSE 5.8 mph - N/A   Partly Cloudy
2:52 AM 39.9 °F 36.7 °F 26.1 °F 58% 30.19 in 10.0 mi SSE 4.6 mph - N/A   Partly Cloudy
3:52 AM 43.0 °F 39.5 °F 28.0 °F 56% 30.17 in 10.0 mi SE 5.8 mph - N/A   Overcast
4:52 AM 46.0 °F 41.4 °F 27.0 °F 47% 30.16 in 10.0 mi SSE 9.2 mph - N/A   Overcast
5:52 AM 46.0 °F 40.2 °F 27.0 °F 47% 30.15 in 10.0 mi SSE 12.7 mph - N/A   Overcast
6:52 AM 46.9 °F - 27.0 °F 46% 30.13 in 10.0 mi SSE 13.8 mph - N/A   Overcast
7:52 AM 48.0 °F - 27.0 °F 44% 30.12 in 10.0 mi SSE 13.8 mph - N/A   Overcast
8:52 AM 48.9 °F - 27.0 °F 43% 30.13 in 10.0 mi SE 13.8 mph 20.7 mph N/A   Overcast
9:52 AM 50.0 °F - 28.0 °F 43% 30.12 in 10.0 mi SE 16.1 mph - N/A   Overcast
10:52 AM 51.1 °F - 30.0 °F 44% 30.13 in 10.0 mi South 13.8 mph - 0.00 in Rain Light Rain
11:52 AM 48.0 °F - 37.0 °F 66% 30.11 in 10.0 mi SE 15.0 mph - 0.00 in Rain Light Rain
12:52 PM 48.0 °F - 39.0 °F 71% 30.07 in 7.0 mi ESE 9.2 mph - 0.03 in   Overcast
1:52 PM 51.1 °F - 39.0 °F 63% 30.04 in 10.0 mi ESE 13.8 mph - N/A   Overcast
2:52 PM 52.0 °F - 41.0 °F 66% 30.03 in 10.0 mi ESE 12.7 mph - 0.00 in Rain Light Rain
3:52 PM 51.1 °F - 41.0 °F 68% 30.01 in 10.0 mi SE 13.8 mph - 0.00 in   Overcast
4:52 PM 51.8 °F - 42.8 °F 71% 29.96 in 10.0 mi SE 18.4 mph 24.2 mph N/A   Overcast
5:52 PM 50.0 °F - 45.0 °F 83% 29.98 in 9.0 mi SE 18.4 mph 25.3 mph 0.00 in Rain Light Rain
6:42 PM 51.8 °F - 46.4 °F 82% 29.94 in 10.0 mi SE 20.7 mph 24.2 mph 0.02 in   Overcast
6:52 PM 51.1 °F - 46.9 °F 86% 29.94 in 10.0 mi SE 19.6 mph - 0.02 in   Overcast
7:52 PM 51.1 °F - 45.0 °F 80% 29.92 in 10.0 mi SE 19.6 mph 26.5 mph N/A   Mostly Cloudy
8:31 PM 51.8 °F - 44.6 °F 76% 29.92 in 10.0 mi SSE 17.3 mph 23.0 mph N/A   Overcast
8:52 PM 51.1 °F - 45.0 °F 80% 29.93 in 10.0 mi SE 16.1 mph 25.3 mph N/A   Overcast
9:43 PM 51.8 °F - 44.6 °F 76% 29.90 in 10.0 mi SE 19.6 mph 26.5 mph 0.00 in   Mostly Cloudy
9:52 PM 51.1 °F - 45.0 °F 80% 29.91 in 10.0 mi SE 20.7 mph 27.6 mph 0.00 in Rain Light Rain
10:52 PM 50.0 °F - 45.0 °F 83% 29.90 in 10.0 mi SSE 17.3 mph 26.5 mph 0.00 in   Overcast
11:24 PM 50.0 °F - 44.6 °F 82% 29.90 in 10.0 mi SSE 20.7 mph - 0.00 in Thunderstorm Thunderstorm
11:52 PM 50.0 °F - 45.0 °F 83% 29.88 in 4.0 mi SE 17.3 mph 26.5 mph 0.04 in Rain , Thunderstorm Thunderstorms and Rain